Location: Unspecified
(0.0000°N, 0.0000°E)
Time: 04:23:06
(UTC+00:00)

Altair - Visible Passes

Search period start: 30 May 2015 00:00
Search period end: 09 June 2015 00:00
Orbit: 1501 x 1683 km, 47.2° (Epoch: 28 May)

Date Brightness Start Highest point End Pass type
(mag) Time Alt. Az. Time Alt. Az. Time Alt. Az.
02 Jun 9.7 22:57:16 10° NNW 22:57:34 11° NNW 22:57:34 11° NNW visible
03 Jun 9.6 22:32:24 10° N 22:33:32 13° N 22:33:32 13° N visible
04 Jun 9.4 22:07:33 10° N 22:09:32 16° N 22:09:32 16° N visible
05 Jun 9.3 21:42:46 10° N 21:45:34 17° N 21:45:34 17° N visible
06 Jun 9.2 21:18:01 10° N 21:21:39 18° NNE 21:21:39 18° NNE visible
07 Jun 9.1 20:53:22 10° N 20:57:47 18° NNE 20:57:47 18° NNE visible
07 Jun 9.6 22:54:57 10° NW 22:55:48 13° NW 22:55:48 13° NW visible
08 Jun 9.1 20:28:49 10° N 20:33:57 17° NE 20:33:57 17° NE visible
08 Jun 9.3 22:29:47 10° NW 22:31:58 19° NW 22:31:58 19° NW visible
